Location: Newark
(48.2308°N, 120.8549°W)
Time: 07:39:51
(UTC+00:00)

Tiangong - Pass Details

Date: 29 June 2021
Orbit: 373 x 386 km, 41.5° (Epoch: 03 August)

Event Time Altitude Azimuth Distance (km) Brightness Sun altitude
Exits shadow 10:58:04 13° 226° (SW) 1,213 2.9 -9.0°
Maximum altitude 10:59:25 17° 196° (SSW) 1,066 2.7 -8.8°
Drops below altitude 10° 11:01:30 10° 154° (SSE) 1,386 3.6 -8.6°
Sets 11:04:03 0° 133° (SE) 2,240 4.9 -8.3°
